Time,TemperatureF,DewpointF,PressureIn,WindDirection,WindDirectionDegrees,WindSpeedMPH,WindSpeedGustMPH,Humidity,HourlyPrecipIn,Conditions,Clouds,dailyrainin,SoftwareType,DateUTC
2013-05-07 00:03:00,48.0,47.0,30.01,SSW,211,0.0,-999.0,98,-99.99,,,-99.99,,2013-05-07 04:03:00,
2013-05-07 00:12:00,48.0,47.0,30.01,SSW,211,0.0,-999.0,98,-99.99,,,-99.99,,2013-05-07 04:12:00,
2013-05-07 00:23:00,48.0,47.0,30.01,SSW,211,0.0,-999.0,98,-99.99,,,-99.99,,2013-05-07 04:23:00,
2013-05-07 00:33:00,49.0,49.0,30.01,SSW,211,0.0,-999.0,99,-99.99,,,-99.99,,2013-05-07 04:33:00,
2013-05-07 00:42:00,49.0,49.0,30.01,SSW,211,0.0,-999.0,99,-99.99,,,-99.99,,2013-05-07 04:42:00,
2013-05-07 00:53:00,49.0,49.0,30.01,SSW,211,0.0,-999.0,99,-99.99,,,-99.99,,2013-05-07 04:53:00,
2013-05-07 01:02:00,46.0,46.0,30.01,East,98,2.0,-999.0,100,-99.99,,,-99.99,,2013-05-07 05:02:00,
2013-05-07 01:12:00,46.0,46.0,30.01,East,98,2.0,-999.0,100,-99.99,,,-99.99,,2013-05-07 05:12:00,
2013-05-07 01:22:00,46.0,46.0,30.01,East,86,3.0,-999.0,100,-99.99,,,-99.99,,2013-05-07 05:22:00,
2013-05-07 01:32:00,46.0,46.0,30.01,ESE,103,2.0,-999.0,100,-99.99,,,-99.99,,2013-05-07 05:32:00,
2013-05-07 01:42:00,46.0,46.0,30.01,ESE,103,2.0,-999.0,100,-99.99,,,-99.99,,2013-05-07 05:42:00,
2013-05-07 01:52:00,46.0,46.0,30.01,East,90,4.0,-999.0,100,-99.99,,,-99.99,,2013-05-07 05:52:00,
2013-05-07 02:02:00,46.0,46.0,30.01,East,99,5.0,-999.0,100,-99.99,,,-99.99,,2013-05-07 06:02:00,
2013-05-07 02:12:00,46.0,46.0,30.01,East,99,5.0,-999.0,100,-99.99,,,-99.99,,2013-05-07 06:12:00,
2013-05-07 02:22:00,47.0,47.0,30.00,ESE,105,5.0,-999.0,100,-99.99,,,-99.99,,2013-05-07 06:22:00,
2013-05-07 02:32:00,46.0,46.0,29.99,ESE,115,7.0,-999.0,100,-99.99,,,-99.99,,2013-05-07 06:32:00,
2013-05-07 02:42:00,46.0,46.0,29.99,ESE,115,7.0,-999.0,100,-99.99,,,-99.99,,2013-05-07 06:42:00,
2013-05-07 02:52:00,46.0,46.0,29.99,East,101,6.0,-999.0,100,-99.99,,,-99.99,,2013-05-07 06:52:00,
2013-05-07 03:02:00,46.0,46.0,29.99,East,92,4.0,-999.0,100,-99.99,,,-99.99,,2013-05-07 07:02:00,
2013-05-07 03:11:00,46.0,46.0,29.99,East,92,4.0,-999.0,100,-99.99,,,-99.99,,2013-05-07 07:11:00,
2013-05-07 03:22:00,46.0,46.0,29.99,East,99,4.0,-999.0,100,-99.99,,,-99.99,,2013-05-07 07:22:00,
2013-05-07 03:32:00,47.0,47.0,29.99,ESE,112,4.0,-999.0,100,-99.99,,,-99.99,,2013-05-07 07:32:00,
2013-05-07 03:42:00,47.0,47.0,29.99,ESE,112,4.0,-999.0,100,-99.99,,,-99.99,,2013-05-07 07:42:00,
2013-05-07 03:52:00,49.0,49.0,29.98,SSW,211,0.0,-999.0,99,-99.99,,,-99.99,,2013-05-07 07:52:00,
2013-05-07 04:02:00,49.0,49.0,29.98,SSW,211,0.0,-999.0,99,-99.99,,,-99.99,,2013-05-07 08:02:00,
2013-05-07 04:11:00,49.0,49.0,29.98,SSW,211,0.0,-999.0,99,-99.99,,,-99.99,,2013-05-07 08:11:00,
2013-05-07 04:22:00,49.0,49.0,29.98,SSW,211,0.0,-999.0,99,-99.99,,,-99.99,,2013-05-07 08:22:00,
2013-05-07 04:32:00,49.0,49.0,29.98,SSW,211,0.0,-999.0,99,-99.99,,,-99.99,,2013-05-07 08:32:00,
2013-05-07 04:42:00,49.0,49.0,29.98,SSW,211,0.0,-999.0,99,-99.99,,,-99.99,,2013-05-07 08:42:00,
2013-05-07 04:52:00,49.0,49.0,29.98,SSW,211,0.0,-999.0,99,-99.99,,,-99.99,,2013-05-07 08:52:00,
2013-05-07 05:01:00,49.0,49.0,29.97,SSW,211,0.0,-999.0,99,-99.99,,,-99.99,,2013-05-07 09:01:00,
2013-05-07 05:11:00,49.0,49.0,29.97,SSW,211,0.0,-999.0,99,-99.99,,,-99.99,,2013-05-07 09:11:00,
2013-05-07 05:22:00,49.0,49.0,29.97,SSW,211,0.0,-999.0,99,-99.99,,,-99.99,,2013-05-07 09:22:00,
2013-05-07 05:33:00,49.0,49.0,29.98,SSW,211,0.0,-999.0,99,-99.99,,,-99.99,,2013-05-07 09:33:00,
2013-05-07 05:43:00,49.0,49.0,29.98,SSW,211,0.0,-999.0,99,-99.99,,,-99.99,,2013-05-07 09:43:00,
2013-05-07 05:52:00,49.0,49.0,29.98,SSW,211,0.0,-999.0,99,-99.99,,,-99.99,,2013-05-07 09:52:00,
2013-05-07 06:03:00,49.0,49.0,29.98,SSW,211,0.0,-999.0,99,-99.99,,,-99.99,,2013-05-07 10:03:00,
2013-05-07 06:12:00,49.0,49.0,29.98,SSW,211,0.0,-999.0,99,-99.99,,,-99.99,,2013-05-07 10:12:00,
2013-05-07 06:23:00,49.0,49.0,29.98,SSW,211,0.0,-999.0,99,-99.99,,,-99.99,,2013-05-07 10:23:00,
2013-05-07 06:32:00,49.0,49.0,29.98,SSW,211,0.0,-999.0,99,-99.99,,,-99.99,,2013-05-07 10:32:00,
2013-05-07 06:42:00,49.0,49.0,29.98,SSW,211,0.0,-999.0,99,-99.99,,,-99.99,,2013-05-07 10:42:00,
2013-05-07 06:52:00,49.0,49.0,29.98,SSW,211,0.0,-999.0,99,-99.99,,,-99.99,,2013-05-07 10:52:00,
2013-05-07 07:02:00,49.0,49.0,29.98,SSW,211,0.0,-999.0,99,-99.99,,,-99.99,,2013-05-07 11:02:00,
2013-05-07 07:12:00,49.0,49.0,29.98,SSW,211,0.0,-999.0,99,-99.99,,,-99.99,,2013-05-07 11:12:00,
2013-05-07 07:22:00,49.0,49.0,29.98,SSW,211,0.0,-999.0,99,-99.99,,,-99.99,,2013-05-07 11:22:00,
2013-05-07 07:32:00,49.0,49.0,29.99,SW,219,0.0,-999.0,99,-99.99,,,-99.99,,2013-05-07 11:32:00,
2013-05-07 07:42:00,49.0,49.0,29.99,SW,219,0.0,-999.0,99,-99.99,,,-99.99,,2013-05-07 11:42:00,
2013-05-07 07:52:00,49.0,49.0,29.99,SW,219,0.0,-999.0,99,-99.99,,,-99.99,,2013-05-07 11:52:00,
2013-05-07 08:02:00,49.0,49.0,29.99,SW,219,0.0,-999.0,99,-99.99,,,-99.99,,2013-05-07 12:02:00,
2013-05-07 08:11:00,49.0,49.0,29.99,SW,219,0.0,-999.0,99,-99.99,,,-99.99,,2013-05-07 12:11:00,
2013-05-07 08:22:00,49.0,49.0,29.98,SW,219,0.0,-999.0,99,-99.99,,,-99.99,,2013-05-07 12:22:00,
2013-05-07 08:32:00,50.0,50.0,29.99,SW,219,0.0,-999.0,99,-99.99,,,-99.99,,2013-05-07 12:32:00,
2013-05-07 08:42:00,50.0,50.0,29.99,SW,219,0.0,-999.0,99,-99.99,,,-99.99,,2013-05-07 12:42:00,
2013-05-07 08:52:00,50.0,50.0,29.99,SW,219,2.0,-999.0,99,-99.99,,,-99.99,,2013-05-07 12:52:00,
2013-05-07 09:02:00,51.0,51.0,30.00,SW,219,0.0,-999.0,99,-99.99,,,-99.99,,2013-05-07 13:02:00,
2013-05-07 09:11:00,51.0,51.0,30.00,SW,219,0.0,-999.0,99,-99.99,,,-99.99,,2013-05-07 13:11:00,
2013-05-07 09:22:00,51.0,50.0,30.01,SW,223,0.0,-999.0,97,-99.99,,,-99.99,,2013-05-07 13:22:00,
2013-05-07 09:32:00,52.0,51.0,30.01,WSW,244,0.0,-999.0,97,-99.99,,,-99.99,,2013-05-07 13:32:00,
2013-05-07 09:42:00,52.0,51.0,30.01,WSW,244,0.0,-999.0,97,-99.99,,,-99.99,,2013-05-07 13:42:00,
2013-05-07 09:52:00,53.0,51.0,30.02,West,261,1.0,-999.0,94,-99.99,,,-99.99,,2013-05-07 13:52:00,
2013-05-07 10:02:00,53.0,50.0,30.02,West,261,1.0,-999.0,91,-99.99,,,-99.99,,2013-05-07 14:02:00,
2013-05-07 10:11:00,53.0,50.0,30.02,West,261,1.0,-999.0,91,-99.99,,,-99.99,,2013-05-07 14:11:00,
2013-05-07 10:21:00,54.0,51.0,30.02,SSE,151,0.0,-999.0,89,-99.99,,,-99.99,,2013-05-07 14:21:00,
2013-05-07 10:32:00,55.0,51.0,30.01,SSE,151,0.0,-999.0,85,-99.99,,,-99.99,,2013-05-07 14:32:00,
2013-05-07 10:42:00,55.0,51.0,30.01,SSE,151,0.0,-999.0,85,-99.99,,,-99.99,,2013-05-07 14:42:00,
2013-05-07 10:52:00,55.0,51.0,30.01,NW,319,2.0,-999.0,86,-99.99,,,-99.99,,2013-05-07 14:52:00,
2013-05-07 11:01:00,55.0,51.0,30.01,WNW,284,2.0,-999.0,86,-99.99,,,-99.99,,2013-05-07 15:01:00,
2013-05-07 11:12:00,55.0,51.0,30.01,WNW,284,2.0,-999.0,86,-99.99,,,-99.99,,2013-05-07 15:12:00,
2013-05-07 11:21:00,56.0,51.0,30.01,WNW,295,2.0,-999.0,82,-99.99,,,-99.99,,2013-05-07 15:21:00,
2013-05-07 11:33:00,57.0,51.0,30.01,North,360,2.0,-999.0,79,-99.99,,,-99.99,,2013-05-07 15:33:00,
2013-05-07 11:42:00,57.0,51.0,30.01,North,360,2.0,-999.0,79,-99.99,,,-99.99,,2013-05-07 15:42:00,
2013-05-07 11:53:00,57.0,51.0,30.01,North,360,2.0,-999.0,79,-99.99,,,-99.99,,2013-05-07 15:53:00,
2013-05-07 12:03:00,57.0,51.0,30.01,WNW,296,6.0,-999.0,79,-99.99,,,-99.99,,2013-05-07 16:03:00,
2013-05-07 12:12:00,57.0,51.0,30.01,WNW,296,6.0,-999.0,79,-99.99,,,-99.99,,2013-05-07 16:12:00,
2013-05-07 12:22:00,58.0,52.0,30.00,NNW,335,4.0,-999.0,80,-99.99,,,-99.99,,2013-05-07 16:22:00,
2013-05-07 12:32:00,58.0,52.0,30.00,NNE,22,2.0,-999.0,79,-99.99,,,-99.99,,2013-05-07 16:32:00,
2013-05-07 12:42:00,58.0,52.0,30.00,NNE,22,2.0,-999.0,79,-99.99,,,-99.99,,2013-05-07 16:42:00,
2013-05-07 12:51:00,58.0,52.0,30.00,NNE,22,2.0,-999.0,79,-99.99,,,-99.99,,2013-05-07 16:51:00,
2013-05-07 13:01:00,57.0,51.0,29.98,NNE,17,4.0,-999.0,81,-99.99,,,-99.99,,2013-05-07 17:01:00,
2013-05-07 13:12:00,57.0,51.0,29.98,NNE,17,4.0,-999.0,81,-99.99,,,-99.99,,2013-05-07 17:12:00,
2013-05-07 13:21:00,58.0,52.0,29.98,NNW,336,4.0,-999.0,80,-99.99,,,-99.99,,2013-05-07 17:21:00,
2013-05-07 13:32:00,58.0,51.0,29.98,ENE,78,3.0,-999.0,78,-99.99,,,-99.99,,2013-05-07 17:32:00,
2013-05-07 13:41:00,58.0,51.0,29.98,ENE,78,3.0,-999.0,78,-99.99,,,-99.99,,2013-05-07 17:41:00,
2013-05-07 13:52:00,58.0,51.0,29.98,ENE,78,3.0,-999.0,78,-99.99,,,-99.99,,2013-05-07 17:52:00,
2013-05-07 14:01:00,55.0,50.0,29.98,NE,35,3.0,-999.0,83,-99.99,,,-99.99,,2013-05-07 18:01:00,
2013-05-07 14:11:00,55.0,50.0,29.98,NE,35,3.0,-999.0,83,-99.99,,,-99.99,,2013-05-07 18:11:00,
2013-05-07 14:21:00,54.0,48.0,29.98,NNE,28,4.0,-999.0,81,-99.99,,,-99.99,,2013-05-07 18:21:00,
2013-05-07 14:32:00,54.0,49.0,29.98,North,355,3.0,-999.0,83,-99.99,,,-99.99,,2013-05-07 18:32:00,
2013-05-07 14:42:00,54.0,49.0,29.98,North,355,3.0,-999.0,83,-99.99,,,-99.99,,2013-05-07 18:42:00,
2013-05-07 14:51:00,54.0,48.0,29.98,East,84,1.0,-999.0,80,-99.99,,,-99.99,,2013-05-07 18:51:00,
2013-05-07 15:02:00,54.0,47.0,29.99,NE,46,3.0,-999.0,76,-99.99,,,-99.99,,2013-05-07 19:02:00,
2013-05-07 15:11:00,54.0,47.0,29.99,NE,46,3.0,-999.0,76,-99.99,,,-99.99,,2013-05-07 19:11:00,
2013-05-07 15:21:00,55.0,46.0,29.99,ESE,103,2.0,-999.0,71,-99.99,,,-99.99,,2013-05-07 19:21:00,
2013-05-07 15:32:00,55.0,47.0,29.99,NNE,30,1.0,-999.0,73,-99.99,,,-99.99,,2013-05-07 19:32:00,
2013-05-07 15:42:00,55.0,47.0,29.99,NNE,30,1.0,-999.0,73,-99.99,,,-99.99,,2013-05-07 19:42:00,
2013-05-07 15:52:00,55.0,46.0,29.99,NNE,27,1.0,-999.0,71,-99.99,,,-99.99,,2013-05-07 19:52:00,
2013-05-07 16:02:00,55.0,47.0,29.99,SE,125,2.0,-999.0,75,-99.99,,,-99.99,,2013-05-07 20:02:00,
2013-05-07 16:12:00,55.0,47.0,29.99,SE,125,2.0,-999.0,75,-99.99,,,-99.99,,2013-05-07 20:12:00,
2013-05-07 16:22:00,54.0,49.0,29.99,ESE,105,3.0,-999.0,82,-99.99,,,-99.99,,2013-05-07 20:22:00,
2013-05-07 16:32:00,53.0,48.0,29.98,SE,142,5.0,-999.0,82,-99.99,,,-99.99,,2013-05-07 20:32:00,
2013-05-07 16:42:00,53.0,48.0,29.98,SE,142,5.0,-999.0,82,-99.99,,,-99.99,,2013-05-07 20:42:00,
2013-05-07 16:51:00,54.0,49.0,29.98,SW,219,4.0,-999.0,82,-99.99,,,-99.99,,2013-05-07 20:51:00,
2013-05-07 17:02:00,54.0,47.0,29.98,SSW,209,3.0,-999.0,78,-99.99,,,-99.99,,2013-05-07 21:02:00,
2013-05-07 17:11:00,54.0,47.0,29.98,SSW,209,3.0,-999.0,78,-99.99,,,-99.99,,2013-05-07 21:11:00,
2013-05-07 17:22:00,54.0,48.0,29.98,SSE,166,1.0,-999.0,79,-99.99,,,-99.99,,2013-05-07 21:22:00,
2013-05-07 17:33:00,54.0,47.0,29.98,SSE,163,1.0,-999.0,77,-99.99,,,-99.99,,2013-05-07 21:33:00,
2013-05-07 17:42:00,54.0,47.0,29.98,SSE,163,1.0,-999.0,77,-99.99,,,-99.99,,2013-05-07 21:42:00,
2013-05-07 17:53:00,55.0,48.0,29.98,South,189,1.0,-999.0,77,-99.99,,,-99.99,,2013-05-07 21:53:00,
2013-05-07 18:02:00,55.0,48.0,29.98,South,191,1.0,-999.0,76,-99.99,,,-99.99,,2013-05-07 22:02:00,
2013-05-07 18:13:00,55.0,48.0,29.98,South,191,1.0,-999.0,76,-99.99,,,-99.99,,2013-05-07 22:13:00,
2013-05-07 18:22:00,55.0,49.0,29.98,SSW,200,2.0,-999.0,79,-99.99,,,-99.99,,2013-05-07 22:22:00,
2013-05-07 18:33:00,54.0,48.0,29.98,SE,142,3.0,-999.0,81,-99.99,,,-99.99,,2013-05-07 22:33:00,
2013-05-07 18:42:00,54.0,48.0,29.98,SE,142,3.0,-999.0,81,-99.99,,,-99.99,,2013-05-07 22:42:00,
2013-05-07 18:52:00,54.0,48.0,29.98,SE,141,2.0,-999.0,81,-99.99,,,-99.99,,2013-05-07 22:52:00,
2013-05-07 19:02:00,54.0,48.0,29.98,SSE,153,2.0,-999.0,81,-99.99,,,-99.99,,2013-05-07 23:02:00,
2013-05-07 19:12:00,54.0,48.0,29.98,SSE,153,2.0,-999.0,81,-99.99,,,-99.99,,2013-05-07 23:12:00,
2013-05-07 19:21:00,54.0,49.0,29.99,ESE,107,1.0,-999.0,82,-99.99,,,-99.99,,2013-05-07 23:21:00,
2013-05-07 19:32:00,53.0,48.0,30.00,SE,126,1.0,-999.0,84,-99.99,,,-99.99,,2013-05-07 23:32:00,
2013-05-07 19:42:00,53.0,48.0,30.00,SE,126,1.0,-999.0,84,-99.99,,,-99.99,,2013-05-07 23:42:00,
2013-05-07 19:52:00,52.0,48.0,30.00,SSE,155,0.0,-999.0,86,-99.99,,,-99.99,,2013-05-07 23:52:00,
2013-05-07 20:02:00,52.0,48.0,30.01,SSE,155,0.0,-999.0,87,-99.99,,,-99.99,,2013-05-08 00:02:00,
2013-05-07 20:12:00,52.0,48.0,30.01,SSE,155,0.0,-999.0,87,-99.99,,,-99.99,,2013-05-08 00:12:00,
2013-05-07 20:22:00,51.0,48.0,30.01,SSE,154,0.0,-999.0,88,-99.99,,,-99.99,,2013-05-08 00:22:00,
2013-05-07 20:32:00,51.0,48.0,30.01,SSE,154,1.0,-999.0,88,-99.99,,,-99.99,,2013-05-08 00:32:00,
2013-05-07 20:42:00,51.0,48.0,30.01,SSE,154,1.0,-999.0,88,-99.99,,,-99.99,,2013-05-08 00:42:00,
2013-05-07 20:51:00,51.0,48.0,30.01,SSE,154,0.0,-999.0,91,-99.99,,,-99.99,,2013-05-08 00:51:00,
2013-05-07 21:02:00,51.0,48.0,30.01,SSE,154,0.0,-999.0,91,-99.99,,,-99.99,,2013-05-08 01:02:00,
2013-05-07 21:11:00,51.0,48.0,30.01,SSE,154,0.0,-999.0,91,-99.99,,,-99.99,,2013-05-08 01:11:00,
2013-05-07 21:22:00,50.0,47.0,30.01,NW,313,3.0,-999.0,90,-99.99,,,-99.99,,2013-05-08 01:22:00,
2013-05-07 21:32:00,50.0,48.0,30.00,WNW,288,3.0,-999.0,92,-99.99,,,-99.99,,2013-05-08 01:32:00,
2013-05-07 21:42:00,50.0,48.0,30.00,WNW,288,3.0,-999.0,92,-99.99,,,-99.99,,2013-05-08 01:42:00,
2013-05-07 21:52:00,49.0,48.0,30.00,WNW,297,2.0,-999.0,95,-99.99,,,-99.99,,2013-05-08 01:52:00,
2013-05-07 22:02:00,49.0,48.0,30.00,WNW,297,0.0,-999.0,96,-99.99,,,-99.99,,2013-05-08 02:02:00,
2013-05-07 22:12:00,49.0,48.0,30.00,WNW,297,0.0,-999.0,96,-99.99,,,-99.99,,2013-05-08 02:12:00,
2013-05-07 22:22:00,49.0,48.0,30.01,WNW,297,0.0,-999.0,96,-99.99,,,-99.99,,2013-05-08 02:22:00,
2013-05-07 22:32:00,49.0,48.0,30.02,WNW,297,0.0,-999.0,96,-99.99,,,-99.99,,2013-05-08 02:32:00,
2013-05-07 22:42:00,49.0,48.0,30.02,WNW,297,0.0,-999.0,96,-99.99,,,-99.99,,2013-05-08 02:42:00,
2013-05-07 22:52:00,48.0,47.0,30.02,WNW,297,0.0,-999.0,96,-99.99,,,-99.99,,2013-05-08 02:52:00,
2013-05-07 23:02:00,48.0,47.0,30.03,WNW,297,0.0,-999.0,97,-99.99,,,-99.99,,2013-05-08 03:02:00,
2013-05-07 23:11:00,48.0,47.0,30.03,WNW,297,0.0,-999.0,97,-99.99,,,-99.99,,2013-05-08 03:11:00,
2013-05-07 23:22:00,48.0,47.0,30.03,WNW,297,0.0,-999.0,97,-99.99,,,-99.99,,2013-05-08 03:22:00,
2013-05-07 23:33:00,48.0,47.0,30.03,WNW,297,1.0,-999.0,97,-99.99,,,-99.99,,2013-05-08 03:33:00,
2013-05-07 23:43:00,48.0,47.0,30.03,WNW,297,1.0,-999.0,97,-99.99,,,-99.99,,2013-05-08 03:43:00,
2013-05-07 23:52:00,48.0,47.0,30.03,WNW,297,0.0,-999.0,97,-99.99,,,-99.99,,2013-05-08 03:52:00,